[[{"header":{"parameterUnit":"m.s-1","parameterCategory":1,"la1":30.2991,"la2":30.254,"lo1":-89.0895,"lo2":-89.0444,"dy":0.0017,"dx":0.0017,"nx":28,"ny":28,"refTime":"2024-03-25T09:00:00:Z","depth":0,"parameterNumber":2,"parameterNumberName":"U-component_of_WINDS"},"data":[0,0,0,0,0,0,0,0,0,0,0,0,0,0,0,0,0,0,0,0,0,0,0,0,0,0,0,0,0,0,0,0,0,0,0,0,0,0,0,0,0,0,0,0,0,0,0,0,0,0,0,0,0,0,0,0,0,0,0.4254,0.4254,0,0.4302,0.4302,0.4303,0.4278,0.4276,0.4275,0.4274,0.4328,0.4331,0.4334,0,0,0,0,0,0,0,0,0,0,0,0,0,0.4146,0.4148,0.4254,0.4254,0.4255,0.4302,0.4302,0.4303,0.4278,0.4276,0.4275,0.4273,0.4328,0.4331,0.4334,0,0,0,0,0,0,0,0,0,0,0,0,0,0.4193,0.4148,0.4254,0.4248,0.4248,0.4301,0.4302,0.4303,0.4278,0.4276,0.4274,0.4272,0.4327,0.433,0.4334,0.4398,0,0,0.4347,0.4348,0,0,0,0,0,0,0,0,0.419,0.4197,0.4248,0.4249,0.4249,0.4282,0.4284,0.4335,0.4279,0.4267,0.4274,0.4272,0.4315,0.432,0.4333,0.4401,0.4403,0.4347,0.4349,0.4351,0.4352,0,0,0,0,0,0,0,0.4187,0.4195,0.4273,0.4249,0.4249,0.4245,0.4249,0.4294,0.4301,0.4268,0.4266,0.4272,0.4315,0.4329,0.4334,0.4404,0.4347,0.435,0.4353,0.4354,0.4524,0.4526,0,0,0,0,0,0,0.4183,0.4192,0.4271,0.4274,0.4214,0.4248,0.4253,0.4273,0.4301,0.4303,0.4273,0.427,0.4323,0.433,0.4336,0.4411,0.4351,0.4355,0.4357,0.4522,0.4525,0.4527,0,0,0,0,0,0,0.4181,0.4191,0.4269,0.4233,0.4242,0.4252,0.4274,0.4275,0.429,0.4305,0.4307,0.4287,0.4322,0.433,0.4382,0.4413,0.4357,0.436,0.452,0.4523,0.4526,0.4562,0,0,0,0,0,0,0.4178,0.419,0.4213,0.4233,0.4244,0.4313,0.4276,0.4277,0.4296,0.4292,0.4318,0.432,0.4321,0.4376,0.4386,0.4417,0.4363,0.4517,0.4521,0.4525,0.4559,0.4566,0.4573,0,0,0,0,0,0.4174,0.4223,0.4215,0.4224,0.4273,0.4315,0.4322,0.432,0.4298,0.4322,0.4332,0.4319,0.4408,0.4382,0.4393,0.4425,0.4515,0.452,0.4525,0.4555,0.4565,0.4573,0,0,0,0,0,0,0.4209,0.4226,0.4216,0.4273,0.4293,0.4311,0.4341,0.4331,0.4359,0.4354,0.4353,0.4359,0.4412,0.4424,0.4395,0.4488,0.4458,0.4465,0.4478,0.4487,0.4494,0.449,0.4367,0,0,0,0,0,0.4223,0.4254,0.4267,0.4316,0.4326,0.4332,0.435,0.4347,0.4368,0.4377,0.439,0.4413,0.4445,0.4467,0.4498,0.456,0.4565,0.4588,0.4595,0.4601,0.4608,0.464,0.465,0.4543,0.4543,0.4543,0,0,0.4253,0.4266,0.4286,0.4323,0.4338,0.4371,0.4339,0.4376,0.4401,0.4383,0.4432,0.4442,0.4467,0.4524,0.455,0.4536,0.4638,0.4607,0.4612,0.4615,0.4646,0.4656,0.4665,0.4546,0.4545,0.4545,0,0,0.4323,0.4336,0.4377,0.4392,0.4414,0.4417,0.4427,0.4447,0.4452,0.45,0.4487,0.4518,0.4574,0.4592,0.4608,0.4684,0.4673,0.4694,0.4733,0.4765,0.4773,0.4781,0.4807,0.4816,0.4701,0.4701,0.4701,0,0.4358,0.4405,0.44,0.4437,0.4454,0.4437,0.4479,0.4495,0.4527,0.4539,0.4522,0.4591,0.4607,0.4667,0.4685,0.47,0.4711,0.4691,0.4772,0.4779,0.4786,0.4811,0.4821,0.4703,0.4703,0.4703,0.4702,0,0.4446,0.448,0.4511,0.4539,0.4559,0.4599,0.4601,0.4623,0.4618,0.4623,0.4672,0.469,0.4724,0.4738,0.4734,0.4797,0.4787,0.4771,0.4742,0.4799,0.4822,0.4832,0.4706,0.4706,0.4705,0.4704,0,0,0.4541,0.4564,0.4576,0.4587,0.461,0.4636,0.4675,0.4706,0.4724,0.4747,0.4779,0.4826,0.4811,0.483,0.4828,0.4856,0.4913,0.4836,0.4837,0.4849,0.4983,0.4994,0.5005,0.4906,0.4908,0.4909,0.498,0,0.4612,0.4678,0.4674,0.4736,0.4766,0.475,0.4784,0.4802,0.4808,0.4835,0.4843,0.4876,0.4853,0.4864,0.4891,0.4901,0.494,0.4896,0.4937,0.4939,0.493,0.5017,0.503,0.5096,0.4989,0.4991,0.4992,0,0.4704,0.4727,0.4791,0.4807,0.482,0.485,0.4877,0.4904,0.4924,0.4926,0.4946,0.4939,0.4979,0.4948,0.5003,0.4973,0.499,0.4997,0.5,0.5003,0.4968,0.5023,0.5117,0.5126,0.5007,0.5005,0.5004,0,0.4765,0.4812,0.4856,0.4867,0.4888,0.4909,0.4919,0.4937,0.4955,0.4979,0.4991,0.502,0.5037,0.506,0.5062,0.5039,0.5117,0.5087,0.512,0.512,0.5138,0.5136,0.5235,0.515,0.515,0.5149,0.5149,0,0.4845,0.4885,0.4884,0.4911,0.4955,0.4951,0.4995,0.5003,0.5019,0.5048,0.5037,0.5065,0.5065,0.5094,0.5096,0.5141,0.5149,0.5152,0.5152,0.5153,0.5152,0.5163,0.5159,0.5152,0.5151,0.5151,0.515,0,0.4921,0.4922,0.4969,0.4983,0.4987,0.5019,0.5032,0.5059,0.5063,0.5099,0.5108,0.5115,0.5148,0.5152,0.5192,0.5193,0.5246,0.5242,0.5239,0.5238,0.5271,0.5267,0.538,0.5394,0.53,0.5301,0.5302,0,0.4972,0.5001,0.5018,0.5035,0.5046,0.5075,0.5092,0.5089,0.5108,0.5132,0.5156,0.5187,0.5212,0.5266,0.5275,0.5305,0.5301,0.5338,0.5305,0.5304,0.53,0.5298,0.5301,0.5344,0.5345,0.5346,0.5347,0,0.5061,0.5059,0.5084,0.5109,0.5129,0.5149,0.5168,0.5184,0.5183,0.5205,0.5237,0.5256,0.5295,0.5326,0.5355,0.5367,0.5357,0.5357,0.5366,0.5367,0.5363,0.5364,0.5255,0.5355,0.5354,0.5353,0.5353,0.5353,0.5125,0.515,0.5165,0.5193,0.5206,0.5223,0.5248,0.5254,0.528,0.531,0.5307,0.5342,0.5361,0.5398,0.5412,0.544,0.5428,0.5442,0.5445,0.5448,0.5451,0.5359,0.5446,0.5445,0.5445,0.5445,0.5445,0,0.5213,0.5221,0.5246,0.5271,0.5293,0.528,0.5299,0.5319,0.535,0.5367,0.5391,0.5427,0.5457,0.5468,0.5498,0.5518,0.5515,0.5526,0.5524,0.5527,0.5461,0.5449,0.5529,0.5529,0.5529,0.5529,0.5529,0.5529,0.5261,0.5302,0.5302,0.535,0.5358,0.5391,0.5403,0.5419,0.5432,0.5473,0.5497,0.5503,0.5518,0.5548,0.5575,0.5577,0.5588,0.5602,0.5602,0.554,0.5532,0.5524,0.5513,0.5604,0.5605,0.5666,0.5667,0.5667]},{"header":{"parameterUnit":"m.s-1","parameterCategory":1,"la1":30.2991,"la2":30.254,"lo1":-89.0895,"lo2":-89.0444,"dy":0.0017,"dx":0.0017,"nx":28,"ny":28,"refTime":"2024-03-25T09:00:00:Z","depth":0,"parameterNumber":3,"parameterNumberName":"V-component_of_WINDS"},"data":[0,0,0,0,0,0,0,0,0,0,0,0,0,0,0,0,0,0,0,0,0,0,0,0,0,0,0,0,0,0,0,0,0,0,0,0,0,0,0,0,0,0,0,0,0,0,0,0,0,0,0,0,0,0,0,0,0,0,2.2129,2.2129,0,2.2102,2.2101,2.2101,2.2075,2.2075,2.2074,2.2074,2.2044,2.2043,2.2043,0,0,0,0,0,0,0,0,0,0,0,0,0,2.2156,2.2156,2.2129,2.2129,2.2129,2.2102,2.2101,2.2101,2.2075,2.2075,2.2074,2.2074,2.2044,2.2043,2.2043,0,0,0,0,0,0,0,0,0,0,0,0,0,2.2138,2.2156,2.2129,2.2112,2.2111,2.2102,2.2101,2.2101,2.2075,2.2075,2.2074,2.2074,2.2044,2.2043,2.2043,2.2048,0,0,2.204,2.204,0,0,0,0,0,0,0,0,2.2139,2.2137,2.2115,2.2114,2.2112,2.2091,2.21,2.2083,2.2075,2.2089,2.2074,2.2074,2.206,2.2058,2.2054,2.2046,2.2045,2.204,2.204,2.204,2.2039,0,0,0,0,0,0,0,2.214,2.2138,2.2118,2.2115,2.2113,2.2105,2.2102,2.2096,2.2077,2.2087,2.2085,2.2083,2.2059,2.2054,2.2053,2.2044,2.204,2.204,2.2039,2.2039,2.2037,2.2037,0,0,0,0,0,0,2.2145,2.2139,2.2119,2.2117,2.2125,2.2105,2.2102,2.2098,2.2077,2.2074,2.2083,2.2082,2.2056,2.2054,2.2052,2.2054,2.204,2.2039,2.2038,2.2036,2.2037,2.2037,0,0,0,0,0,0,2.2145,2.2143,2.212,2.2128,2.2124,2.2105,2.2102,2.2098,2.2094,2.2074,2.207,2.2082,2.2055,2.2053,2.2048,2.2053,2.2038,2.2038,2.2036,2.2036,2.2037,2.2061,0,0,0,0,0,0,2.2146,2.2144,2.2146,2.2128,2.2124,2.2119,2.2102,2.2098,2.2093,2.209,2.2072,2.2069,2.2055,2.205,2.2048,2.2051,2.2037,2.2035,2.2036,2.2037,2.2059,2.2062,2.2064,0,0,0,0,0,2.2147,2.2154,2.2146,2.2144,2.2127,2.2119,2.2117,2.2101,2.2093,2.2095,2.2082,2.2069,2.2053,2.2049,2.2047,2.2051,2.2035,2.2036,2.2037,2.2058,2.2061,2.2064,0,0,0,0,0,0,2.2173,2.2151,2.2143,2.2144,2.2134,2.2115,2.2117,2.2105,2.2096,2.2094,2.2075,2.2071,2.2068,2.2059,2.2056,2.2053,2.2042,2.2042,2.2059,2.2062,2.2064,2.2066,2.2037,0,0,0,0,0,2.2179,2.2175,2.2156,2.2159,2.2154,2.2136,2.2132,2.2121,2.2109,2.2104,2.2091,2.2079,2.2071,2.2066,2.2057,2.2058,2.2052,2.2059,2.2061,2.2063,2.2064,2.2061,2.2063,2.204,2.204,2.204,0,0,2.2191,2.2178,2.2177,2.2163,2.2154,2.2149,2.2133,2.2129,2.2124,2.2103,2.2098,2.2088,2.2073,2.2071,2.2069,2.2063,2.2069,2.2064,2.2066,2.2065,2.2062,2.2064,2.2066,2.2041,2.2041,2.204,0,0,2.2209,2.2201,2.2201,2.2192,2.2178,2.2165,2.2166,2.2148,2.214,2.2135,2.2118,2.2112,2.2099,2.2089,2.2082,2.2095,2.2082,2.2092,2.2105,2.2102,2.2104,2.2105,2.2108,2.211,2.2093,2.2093,2.2093,0,2.2226,2.2219,2.2203,2.2199,2.2193,2.2174,2.2173,2.2164,2.2148,2.2143,2.2137,2.2119,2.2108,2.2101,2.2104,2.21,2.2098,2.2094,2.2105,2.2106,2.2107,2.211,2.2111,2.2094,2.2094,2.2094,2.2094,0,2.2239,2.2234,2.2236,2.222,2.2214,2.2212,2.2194,2.219,2.2179,2.2167,2.216,2.2146,2.2133,2.2131,2.212,2.2122,2.2119,2.2109,2.2098,2.2111,2.2113,2.2114,2.2096,2.2095,2.2095,2.2095,0,0,2.2273,2.2248,2.2249,2.2241,2.2223,2.2219,2.2215,2.2203,2.2198,2.2187,2.2182,2.2171,2.2161,2.2153,2.2141,2.2138,2.2147,2.2129,2.2128,2.2131,2.2146,2.2153,2.2155,2.2139,2.2139,2.2139,2.2147,0,2.2288,2.2282,2.2266,2.2263,2.2257,2.2238,2.2235,2.2222,2.2211,2.2203,2.2189,2.2181,2.217,2.2164,2.2161,2.2147,2.215,2.2146,2.2132,2.2132,2.2136,2.2156,2.2163,2.2172,2.2148,2.2148,2.2148,0,2.2305,2.2295,2.2292,2.2273,2.227,2.2267,2.2254,2.2247,2.2232,2.2223,2.2214,2.22,2.2193,2.2182,2.2171,2.2169,2.2162,2.2154,2.2154,2.2151,2.2141,2.2153,2.2174,2.2175,2.2149,2.2149,2.2149,0,2.2329,2.2315,2.231,2.2304,2.2282,2.228,2.2271,2.2256,2.2249,2.2237,2.2231,2.2219,2.2211,2.2201,2.2183,2.2177,2.2173,2.2162,2.2164,2.2164,2.2164,2.2164,2.2183,2.2161,2.2161,2.2161,2.2161,0,2.2347,2.2345,2.2321,2.2318,2.2315,2.2296,2.2293,2.2282,2.2268,2.2261,2.2244,2.2238,2.2215,2.2206,2.2192,2.2183,2.2181,2.2172,2.2168,2.2173,2.2174,2.2168,2.2167,2.2161,2.2161,2.2161,2.2161,0,2.2373,2.2356,2.235,2.233,2.2324,2.2323,2.2305,2.23,2.2287,2.2279,2.2276,2.2255,2.2243,2.2224,2.2206,2.2196,2.219,2.2184,2.2196,2.2193,2.2196,2.2196,2.2212,2.2212,2.2191,2.2191,2.2191,0,2.2384,2.2383,2.2362,2.2357,2.2348,2.234,2.2333,2.2314,2.2306,2.2288,2.2286,2.2272,2.2261,2.2242,2.2224,2.221,2.2203,2.2209,2.2201,2.2205,2.2201,2.2201,2.22,2.2211,2.2212,2.2212,2.2212,0,2.2407,2.2399,2.2389,2.2377,2.2369,2.2358,2.2346,2.2342,2.232,2.2313,2.2301,2.2292,2.2273,2.226,2.2243,2.2231,2.2217,2.2215,2.2215,2.222,2.2226,2.2221,2.22,2.2215,2.2215,2.2214,2.2214,2.2214,2.2425,2.2422,2.2407,2.2396,2.2385,2.2374,2.2369,2.2355,2.2345,2.2329,2.2318,2.2306,2.2289,2.2265,2.2254,2.2243,2.2237,2.2237,2.2236,2.2236,2.2238,2.2228,2.224,2.2239,2.2239,2.2239,2.2239,0,2.2445,2.2434,2.2425,2.2409,2.24,2.2389,2.2375,2.2368,2.2358,2.2344,2.2333,2.2317,2.2304,2.2284,2.2269,2.2263,2.2257,2.226,2.226,2.2257,2.2244,2.2246,2.2266,2.2266,2.2266,2.2266,2.2266,2.2266,2.2455,2.2448,2.2438,2.2426,2.2414,2.2403,2.2396,2.2385,2.2373,2.2357,2.2346,2.2334,2.2317,2.2299,2.2285,2.228,2.2274,2.2279,2.2272,2.226,2.2258,2.2256,2.2257,2.2278,2.2279,2.2285,2.2285,2.2285]}]]